Time,TemperatureF,DewpointF,PressureIn,WindDirection,WindDirectionDegrees,WindSpeedMPH,WindSpeedGustMPH,Humidity,HourlyPrecipIn,Conditions,Clouds,dailyrainin,SoftwareType,DateUTC
2013-04-10 00:01:00,65.9,59.0,30.06,South,187,0.0,1.0,77,0.00,,,0.00,weatherlink.com 1.10,2013-04-10 04:01:00,
2013-04-10 00:16:00,66.0,58.0,30.06,SE,134,0.0,3.0,76,0.00,,,0.00,weatherlink.com 1.10,2013-04-10 04:16:00,
2013-04-10 00:31:00,66.3,58.0,30.06,SE,134,0.0,2.0,75,0.00,,,0.00,weatherlink.com 1.10,2013-04-10 04:31:00,
2013-04-10 00:46:00,66.8,58.0,30.06,SE,135,0.0,4.0,74,0.00,,,0.00,weatherlink.com 1.10,2013-04-10 04:46:00,
2013-04-10 01:01:00,67.2,58.0,30.06,SSE,155,1.0,3.0,73,0.00,,,0.00,weatherlink.com 1.10,2013-04-10 05:01:00,
2013-04-10 01:16:00,67.4,58.0,30.06,SE,140,0.0,4.0,72,0.00,,,0.00,weatherlink.com 1.10,2013-04-10 05:16:00,
2013-04-10 01:46:00,67.0,58.0,30.07,South,175,2.0,3.0,74,0.00,,,0.00,weatherlink.com 1.10,2013-04-10 05:46:00,
2013-04-10 02:01:00,66.6,58.0,30.07,South,188,0.0,3.0,75,0.00,,,0.00,weatherlink.com 1.10,2013-04-10 06:01:00,
2013-04-10 02:16:00,66.3,59.0,30.06,South,171,2.0,5.0,76,0.00,,,0.00,weatherlink.com 1.10,2013-04-10 06:16:00,
2013-04-10 02:31:00,65.7,59.0,30.06,SE,143,0.0,4.0,78,0.00,,,0.00,weatherlink.com 1.10,2013-04-10 06:31:00,
2013-04-10 02:47:00,65.2,59.0,30.06,SW,227,2.0,4.0,80,0.00,,,0.00,weatherlink.com 1.10,2013-04-10 06:47:00,
2013-04-10 03:01:00,64.7,59.0,30.06,SSE,165,1.0,3.0,81,0.00,,,0.00,weatherlink.com 1.10,2013-04-10 07:01:00,
2013-04-10 03:17:00,64.2,59.0,30.06,ESE,109,1.0,5.0,83,0.00,,,0.00,weatherlink.com 1.10,2013-04-10 07:17:00,
2013-04-10 03:32:00,63.9,59.0,30.06,SE,139,3.0,4.0,85,0.00,,,0.00,weatherlink.com 1.10,2013-04-10 07:32:00,
2013-04-10 03:47:00,63.7,60.0,30.05,South,171,0.0,4.0,86,0.00,,,0.00,weatherlink.com 1.10,2013-04-10 07:47:00,
2013-04-10 04:02:00,63.3,59.0,30.05,SSE,155,1.0,3.0,87,0.00,,,0.00,weatherlink.com 1.10,2013-04-10 08:02:00,
2013-04-10 04:17:00,62.9,59.0,30.06,South,188,0.0,3.0,88,0.00,,,0.00,weatherlink.com 1.10,2013-04-10 08:17:00,
2013-04-10 04:32:00,62.6,59.0,30.06,SE,136,0.0,3.0,88,0.00,,,0.00,weatherlink.com 1.10,2013-04-10 08:32:00,
2013-04-10 04:47:00,62.3,59.0,30.06,SW,214,0.0,4.0,89,0.00,,,0.00,weatherlink.com 1.10,2013-04-10 08:47:00,
2013-04-10 05:02:00,62.1,59.0,30.05,SSE,157,1.0,3.0,90,0.00,,,0.00,weatherlink.com 1.10,2013-04-10 09:02:00,
2013-04-10 05:17:00,61.9,59.0,30.06,SE,135,0.0,4.0,90,0.00,,,0.00,weatherlink.com 1.10,2013-04-10 09:17:00,
2013-04-10 05:32:00,61.6,59.0,30.05,SE,136,0.0,4.0,91,0.00,,,0.00,weatherlink.com 1.10,2013-04-10 09:32:00,
2013-04-10 05:47:00,61.8,59.0,30.05,SSW,209,0.0,6.0,91,0.00,,,0.00,weatherlink.com 1.10,2013-04-10 09:47:00,
2013-04-10 06:02:00,61.9,59.0,30.05,SSW,203,1.0,4.0,91,0.00,,,0.00,weatherlink.com 1.10,2013-04-10 10:02:00,
2013-04-10 06:17:00,61.6,59.0,30.06,SSW,209,0.0,1.0,91,0.00,,,0.00,weatherlink.com 1.10,2013-04-10 10:17:00,
2013-04-10 06:32:00,61.2,59.0,30.06,SSW,205,0.0,1.0,92,0.00,,,0.00,weatherlink.com 1.10,2013-04-10 10:32:00,
2013-04-10 06:47:00,60.8,59.0,30.07,SSW,205,0.0,0.0,92,0.00,,,0.00,weatherlink.com 1.10,2013-04-10 10:47:00,
2013-04-10 07:02:00,60.3,58.0,30.07,SSW,203,0.0,1.0,93,0.00,,,0.00,weatherlink.com 1.10,2013-04-10 11:02:00,
2013-04-10 07:16:00,60.0,58.0,30.08,SSW,203,0.0,0.0,93,0.00,,,0.00,weatherlink.com 1.10,2013-04-10 11:16:00,
2013-04-10 07:32:00,59.5,58.0,30.08,SSW,203,0.0,1.0,93,0.00,,,0.00,weatherlink.com 1.10,2013-04-10 11:32:00,
2013-04-10 07:46:00,59.5,58.0,30.09,SSW,203,0.0,0.0,94,0.00,,,0.00,weatherlink.com 1.10,2013-04-10 11:46:00,
2013-04-10 08:02:00,60.1,59.0,30.09,SSW,202,2.0,2.0,95,0.00,,,0.00,weatherlink.com 1.10,2013-04-10 12:02:00,
2013-04-10 08:17:00,61.1,59.0,30.10,SSE,159,0.0,3.0,94,0.00,,,0.00,weatherlink.com 1.10,2013-04-10 12:17:00,
2013-04-10 08:32:00,62.3,60.0,30.10,South,178,1.0,3.0,93,0.00,,,0.00,weatherlink.com 1.10,2013-04-10 12:32:00,
2013-04-10 08:46:00,63.8,61.0,30.10,SE,140,3.0,5.0,89,0.00,,,0.00,weatherlink.com 1.10,2013-04-10 12:46:00,
2013-04-10 09:01:00,65.5,61.0,30.09,SSW,210,2.0,5.0,86,0.00,,,0.00,weatherlink.com 1.10,2013-04-10 13:01:00,
2013-04-10 09:17:00,66.9,61.0,30.09,West,266,0.0,7.0,82,0.00,,,0.00,weatherlink.com 1.10,2013-04-10 13:17:00,
2013-04-10 09:46:00,69.1,61.0,30.09,SW,229,5.0,5.0,76,0.00,,,0.00,weatherlink.com 1.10,2013-04-10 13:46:00,
2013-04-10 10:02:00,70.2,62.0,30.09,North,5,1.0,7.0,74,0.00,,,0.00,weatherlink.com 1.10,2013-04-10 14:02:00,
2013-04-10 10:17:00,71.2,62.0,30.09,South,178,1.0,8.0,72,0.00,,,0.00,weatherlink.com 1.10,2013-04-10 14:17:00,
2013-04-10 10:31:00,71.8,62.0,30.09,SE,143,3.0,10.0,70,0.00,,,0.00,weatherlink.com 1.10,2013-04-10 14:31:00,
2013-04-10 10:47:00,72.9,62.0,30.09,SSW,204,3.0,7.0,68,0.00,,,0.00,weatherlink.com 1.10,2013-04-10 14:47:00,
2013-04-10 11:03:00,73.8,62.0,30.09,SSE,157,2.0,9.0,67,0.00,,,0.00,weatherlink.com 1.10,2013-04-10 15:03:00,
2013-04-10 11:17:00,74.5,63.0,30.09,ESE,121,0.0,6.0,68,0.00,,,0.00,weatherlink.com 1.10,2013-04-10 15:17:00,
2013-04-10 11:32:00,75.4,63.0,30.08,WSW,244,1.0,13.0,66,0.00,,,0.00,weatherlink.com 1.10,2013-04-10 15:32:00,
2013-04-10 11:48:00,76.2,63.0,30.08,NNW,336,2.0,9.0,63,0.00,,,0.00,weatherlink.com 1.10,2013-04-10 15:48:00,
2013-04-10 12:02:00,76.9,63.0,30.09,WSW,246,3.0,7.0,62,0.00,,,0.00,weatherlink.com 1.10,2013-04-10 16:02:00,
2013-04-10 12:17:00,78.0,62.0,30.08,SW,217,1.0,6.0,59,0.00,,,0.00,weatherlink.com 1.10,2013-04-10 16:17:00,
2013-04-10 12:33:00,79.4,63.0,30.08,WNW,296,1.0,8.0,57,0.00,,,0.00,weatherlink.com 1.10,2013-04-10 16:33:00,
2013-04-10 12:48:00,80.0,63.0,30.07,SSW,202,2.0,7.0,56,0.00,,,0.00,weatherlink.com 1.10,2013-04-10 16:48:00,
2013-04-10 13:02:00,80.5,63.0,30.07,SSW,213,4.0,8.0,55,0.00,,,0.00,weatherlink.com 1.10,2013-04-10 17:02:00,
2013-04-10 13:17:00,80.7,62.0,30.07,SW,228,1.0,7.0,54,0.00,,,0.00,weatherlink.com 1.10,2013-04-10 17:17:00,
2013-04-10 13:33:00,81.0,63.0,30.06,ESE,118,7.0,9.0,54,0.00,,,0.00,weatherlink.com 1.10,2013-04-10 17:33:00,
2013-04-10 13:47:00,82.2,63.0,30.05,South,175,4.0,6.0,52,0.00,,,0.00,weatherlink.com 1.10,2013-04-10 17:47:00,
2013-04-10 14:03:00,82.4,63.0,30.05,WNW,287,2.0,7.0,53,0.00,,,0.00,weatherlink.com 1.10,2013-04-10 18:03:00,
2013-04-10 14:18:00,82.8,62.0,30.04,WSW,248,0.0,7.0,50,0.00,,,0.00,weatherlink.com 1.10,2013-04-10 18:18:00,
2013-04-10 14:33:00,83.0,61.0,30.03,SE,132,2.0,8.0,48,0.00,,,0.00,weatherlink.com 1.10,2013-04-10 18:33:00,
2013-04-10 14:47:00,83.3,63.0,30.02,WNW,292,1.0,7.0,50,0.00,,,0.00,weatherlink.com 1.10,2013-04-10 18:47:00,
2013-04-10 15:03:00,84.8,62.0,30.02,SSE,161,1.0,10.0,46,0.00,,,0.00,weatherlink.com 1.10,2013-04-10 19:03:00,
2013-04-10 15:18:00,84.8,62.0,30.01,SE,129,4.0,5.0,47,0.00,,,0.00,weatherlink.com 1.10,2013-04-10 19:18:00,
2013-04-10 15:47:00,86.0,62.0,29.99,SE,127,3.0,5.0,44,0.00,,,0.00,weatherlink.com 1.10,2013-04-10 19:47:00,
2013-04-10 16:03:00,85.6,61.0,29.99,ESE,111,1.0,6.0,44,0.00,,,0.00,weatherlink.com 1.10,2013-04-10 20:03:00,
2013-04-10 16:17:00,85.8,61.0,29.98,SW,227,3.0,8.0,44,0.00,,,0.00,weatherlink.com 1.10,2013-04-10 20:17:00,
2013-04-10 16:32:00,85.6,61.0,29.98,SSW,194,1.0,6.0,44,0.00,,,0.00,weatherlink.com 1.10,2013-04-10 20:32:00,
2013-04-10 16:48:00,85.7,61.0,29.98,SSW,202,1.0,8.0,43,0.00,,,0.00,weatherlink.com 1.10,2013-04-10 20:48:00,
2013-04-10 17:03:00,86.0,62.0,29.97,ESE,107,2.0,8.0,45,0.00,,,0.00,weatherlink.com 1.10,2013-04-10 21:03:00,
2013-04-10 17:19:00,86.1,62.0,29.97,ESE,113,2.0,7.0,44,0.00,,,0.00,weatherlink.com 1.10,2013-04-10 21:19:00,
2013-04-10 17:34:00,85.3,61.0,29.96,ESE,117,2.0,6.0,44,0.00,,,0.00,weatherlink.com 1.10,2013-04-10 21:34:00,
2013-04-10 17:49:00,85.2,62.0,29.96,West,267,1.0,5.0,45,0.00,,,0.00,weatherlink.com 1.10,2013-04-10 21:49:00,
2013-04-10 18:04:00,84.1,61.0,29.95,ENE,71,4.0,6.0,45,0.00,,,0.00,weatherlink.com 1.10,2013-04-10 22:04:00,
2013-04-10 18:19:00,83.4,61.0,29.95,East,90,2.0,7.0,47,0.00,,,0.00,weatherlink.com 1.10,2013-04-10 22:19:00,
2013-04-10 18:34:00,83.0,61.0,29.95,SE,134,4.0,8.0,47,0.00,,,0.00,weatherlink.com 1.10,2013-04-10 22:34:00,
2013-04-10 18:49:00,82.6,60.0,29.95,SW,227,2.0,8.0,46,0.00,,,0.00,weatherlink.com 1.10,2013-04-10 22:49:00,
2013-04-10 19:04:00,81.9,59.0,29.94,SSE,147,1.0,6.0,46,0.00,,,0.00,weatherlink.com 1.10,2013-04-10 23:04:00,
2013-04-10 19:19:00,81.1,59.0,29.94,SSW,200,0.0,5.0,47,0.00,,,0.00,weatherlink.com 1.10,2013-04-10 23:19:00,
2013-04-10 19:34:00,80.0,59.0,29.94,South,178,0.0,7.0,49,0.00,,,0.00,weatherlink.com 1.10,2013-04-10 23:34:00,
2013-04-10 19:50:00,79.0,59.0,29.94,West,259,1.0,3.0,51,0.00,,,0.00,weatherlink.com 1.10,2013-04-10 23:50:00,
2013-04-10 20:04:00,78.1,59.0,29.94,South,169,0.0,3.0,53,0.00,,,0.00,weatherlink.com 1.10,2013-04-11 00:04:00,
2013-04-10 20:19:00,77.2,60.0,29.94,SSE,165,0.0,2.0,55,0.00,,,0.00,weatherlink.com 1.10,2013-04-11 00:19:00,
2013-04-10 20:34:00,75.8,60.0,29.94,SSE,165,0.0,0.0,58,0.00,,,0.00,weatherlink.com 1.10,2013-04-11 00:34:00,
2013-04-10 20:49:00,74.5,60.0,29.95,SSE,165,0.0,0.0,61,0.00,,,0.00,weatherlink.com 1.10,2013-04-11 00:49:00,
2013-04-10 21:04:00,73.0,60.0,29.94,SSE,165,0.0,1.0,64,0.00,,,0.00,weatherlink.com 1.10,2013-04-11 01:04:00,
2013-04-10 21:19:00,72.3,60.0,29.94,SSE,163,0.0,2.0,66,0.00,,,0.00,weatherlink.com 1.10,2013-04-11 01:19:00,
2013-04-10 21:34:00,72.4,60.0,29.94,SSE,159,0.0,2.0,66,0.00,,,0.00,weatherlink.com 1.10,2013-04-11 01:34:00,
2013-04-10 21:49:00,71.9,60.0,29.94,SSE,159,0.0,0.0,67,0.00,,,0.00,weatherlink.com 1.10,2013-04-11 01:49:00,
2013-04-10 22:04:00,70.9,60.0,29.94,SSE,159,0.0,0.0,69,0.00,,,0.00,weatherlink.com 1.10,2013-04-11 02:04:00,
2013-04-10 22:19:00,71.3,61.0,29.94,SE,142,0.0,5.0,69,0.00,,,0.00,weatherlink.com 1.10,2013-04-11 02:19:00,
2013-04-10 22:34:00,71.6,60.0,29.93,SE,140,1.0,4.0,68,0.00,,,0.00,weatherlink.com 1.10,2013-04-11 02:34:00,
2013-04-10 22:49:00,71.7,61.0,29.93,SE,124,2.0,6.0,68,0.00,,,0.00,weatherlink.com 1.10,2013-04-11 02:49:00,
2013-04-10 23:04:00,71.5,60.0,29.93,SE,137,1.0,4.0,68,0.00,,,0.00,weatherlink.com 1.10,2013-04-11 03:04:00,
2013-04-10 23:34:00,70.2,60.0,29.94,SE,130,3.0,5.0,69,0.00,,,0.00,weatherlink.com 1.10,2013-04-11 03:34:00,
2013-04-10 23:49:00,70.3,59.0,29.94,SE,126,0.0,5.0,68,0.00,,,0.00,weatherlink.com 1.10,2013-04-11 03:49:00,